Tracking 31028 objects as of 17-Jul-2025
HD Live streaming from Space Station
objects crossing your sky now

COSMOS 1275 DEB

Track COSMOS 1275 DEB now!
10-day predictions


NORAD ID: 39963
Int'l Code: 1981-053PF
Perigee: 921.8 km
Apogee: 1,111.6 km
Inclination: 83.0 °
Period: 105.3 minutes
Semi major axis: 7387 km
RCS: 0.01 m2 (small)
Launch date: April 25, 1981
Source: Commonwealth of Independent States (former USSR) (CIS)
Launch site: PLESETSK MISSILE AND SPACE COMPLEX (PKMTR)

Note: This is SATELLITE DEBRIS
Your satellite tracking list
Your tracking list is empty




NASA's NSSDC Master Catalog

Two Line Element Set (TLE):
1 39963U 81053NZ  25196.48146679  .00000853  00000-0  94529-3 0  9993
2 39963  83.0063 262.6710 0128460 309.0212  49.9558 13.67230043553163
Source of the keplerian elements: AFSPC